User: anonymous   Login
Location: Eaton
(41.3139°N, 82.0207°W)
Time: 21:09:03
(UTC+00:00)
Language:

COSMOS 2251 DEB - Orbit

View from above orbital plane
View from above orbital plane
View from above satellite
View from above satellite

Ground track
Ground track

The orbit data is extracted from the following two-line orbital elements,

1 34789U 93036AAS 22024.12334968  .00002816  00000-0  98127-3 0  9995
2 34789  74.2041 272.9509 0103616 113.8548  35.9288 14.32805454668069
Epoch (UTC): 24 January 2022 02:57:37
Eccentricity: 0.0103616
inclination: 74.2041°
perigee height: 708 km
apogee height: 856 km
right ascension of ascending node: 272.9509°
argument of perigee: 113.8548°
revolutions per day: 14.32805454
mean anomaly at epoch: 35.9288°
orbit number at epoch: 66806

The dashed part of the orbit path shows where the satellite is in the earth's shadow,  

DLR